| time (UTC) | temp C | wind direction | speed KPH | gust KPH | rain 1hr cm | rain 24hr cm | rain mn cm | humidity % | barometer mb |
| 20260507191548 | 21 | 241 | 12.9 | 0.0 | 0.00 | 0.00 | 0.00 | 26 | 1006.0 |
| 20260507190050 | 21 | 289 | 11.3 | 0.0 | 0.00 | 0.00 | 0.00 | 25 | 1005.8 |
| 20260507184518 | 21 | 305 | 11.3 | 0.0 | 0.00 | 0.00 | 0.00 | 24 | 1005.9 |
| 20260507183026 | 21 | 310 | 12.9 | 0.0 | 0.00 | 0.00 | 0.00 | 25 | 1006.3 |
| 20260507181533 | 20 | 303 | 12.9 | 0.0 | 0.00 | 0.00 | 0.00 | 25 | 1006.5 |
| 20260507180036 | 21 | 279 | 9.7 | 0.0 | 0.00 | 0.00 | 0.00 | 26 | 1006.6 |
| 20260507174554 | 20 | 354 | 9.7 | 0.0 | 0.00 | 0.00 | 0.00 | 28 | 1006.8 |
| 20260507173013 | 20 | 302 | 14.5 | 0.0 | 0.00 | 0.00 | 0.00 | 26 | 1007.2 |
| 20260507171505 | 20 | 299 | 12.9 | 0.0 | 0.00 | 0.00 | 0.00 | 27 | 1007.5 |
| 20260507170013 | 19 | 278 | 11.3 | 0.0 | 0.00 | 0.00 | 0.00 | 30 | 1007.6 |
| 20260507164536 | 18 | 261 | 16.1 | 0.0 | 0.00 | 0.00 | 0.00 | 31 | 1007.7 |
| 20260507163031 | 18 | 279 | 19.3 | 0.0 | 0.00 | 0.00 | 0.00 | 31 | 1008.0 |
| 20260507161553 | 18 | 270 | 16.1 | 0.0 | 0.00 | 0.00 | 0.00 | 33 | 1008.0 |
| 20260507160117 | 17 | 284 | 16.1 | 0.0 | 0.00 | 0.00 | 0.00 | 36 | 1008.1 |
| 20260507154508 | 16 | 255 | 16.1 | 0.0 | 0.00 | 0.00 | 0.00 | 38 | 1008.3 |
| 20260507153029 | 16 | 268 | 16.1 | 0.0 | 0.00 | 0.00 | 0.00 | 38 | 1008.7 |
| 20260507151544 | 15 | 278 | 14.5 | 0.0 | 0.00 | 0.00 | 0.00 | 42 | 1009.0 |
| 20260507150008 | 13 | 207 | 16.1 | 0.0 | 0.00 | 0.00 | 0.00 | 45 | 1009.0 |
| 20260507144506 | 12 | 247 | 14.5 | 0.0 | 0.00 | 0.00 | 0.00 | 53 | 1009.3 |
| 20260507143012 | 11 | 267 | 9.7 | 0.0 | 0.00 | 0.00 | 0.00 | 58 | 1009.4 |
| 20260507141531 | 10 | 246 | 12.9 | 0.0 | 0.00 | 0.00 | 0.00 | 58 | 1009.7 |
| 20260507140045 | 9 | 250 | 12.9 | 0.0 | 0.00 | 0.00 | 0.00 | 60 | 1010.1 |
| 20260507134552 | 8 | 275 | 11.3 | 0.0 | 0.00 | 0.00 | 0.00 | 65 | 1010.3 |
| 20260507133033 | 6 | 270 | 14.5 | 0.0 | 0.00 | 0.00 | 0.00 | 67 | 1010.6 |
| 20260507131606 | 6 | 223 | 14.5 | 0.0 | 0.00 | 0.00 | 0.00 | 69 | 1010.8 |
| 20260507130038 | 5 | 271 | 14.5 | 0.0 | 0.00 | 0.00 | 0.00 | 71 | 1010.6 |
| 20260507124552 | 4 | 254 | 14.5 | 0.0 | 0.00 | 0.00 | 0.00 | 74 | 1010.9 |
| 20260507123051 | 3 | 233 | 14.5 | 0.0 | 0.00 | 0.00 | 0.00 | 76 | 1010.9 |
| 20260507121558 | 3 | 268 | 16.1 | 0.0 | 0.00 | 0.00 | 0.00 | 77 | 1010.7 |
| 20260507120014 | 3 | 230 | 16.1 | 0.0 | 0.00 | 0.00 | 0.00 | 78 | 1010.8 |
| 20260507114511 | 3 | 262 | 12.9 | 0.0 | 0.00 | 0.00 | 0.00 | 78 | 1011.1 |
| 20260507113036 | 3 | 230 | 14.5 | 0.0 | 0.00 | 0.00 | 0.00 | 79 | 1011.0 |
| 20260507111520 | 3 | 240 | 16.1 | 0.0 | 0.00 | 0.00 | 0.00 | 79 | 1011.2 |
| 20260507110037 | 3 | 230 | 17.7 | 0.0 | 0.00 | 0.00 | 0.00 | 79 | 1011.5 |
| 20260507104536 | 3 | 244 | 16.1 | 0.0 | 0.00 | 0.00 | 0.00 | 79 | 1011.7 |
| 20260507103058 | 3 | 258 | 14.5 | 0.0 | 0.00 | 0.00 | 0.00 | 79 | 1011.9 |
| 20260507101529 | 3 | 251 | 17.7 | 0.0 | 0.00 | 0.00 | 0.00 | 80 | 1012.1 |
| 20260507100042 | 3 | 236 | 20.9 | 0.0 | 0.00 | 0.00 | 0.00 | 80 | 1012.0 |
| 20260507094531 | 3 | 257 | 19.3 | 0.0 | 0.00 | 0.00 | 0.00 | 80 | 1012.3 |
| 20260507093039 | 3 | 248 | 17.7 | 0.0 | 0.00 | 0.00 | 0.00 | 81 | 1012.3 |
| 20260507091547 | 3 | 247 | 19.3 | 0.0 | 0.00 | 0.00 | 0.00 | 82 | 1012.5 |
| 20260507090040 | 3 | 295 | 17.7 | 0.0 | 0.00 | 0.00 | 0.00 | 83 | 1012.9 |
| 20260507084556 | 2 | 257 | 16.1 | 0.0 | 0.00 | 0.00 | 0.00 | 84 | 1013.1 |
| 20260507083055 | 2 | 265 | 16.1 | 0.0 | 0.00 | 0.00 | 0.00 | 85 | 1013.2 |
| 20260507081558 | 2 | 229 | 16.1 | 0.0 | 0.00 | 0.00 | 0.00 | 85 | 1013.6 |
| 20260507081501 | 2 | 277 | 16.1 | 0.0 | 0.00 | 0.00 | 0.00 | 85 | 1013.8 |
| 20260507080056 | 2 | 264 | 14.5 | 0.0 | 0.00 | 0.00 | 0.00 | 84 | 1013.8 |
| 20260507074505 | 2 | 253 | 14.5 | 0.0 | 0.00 | 0.00 | 0.00 | 84 | 1014.2 |
| 20260507073011 | 2 | 229 | 14.5 | 0.0 | 0.00 | 0.00 | 0.00 | 84 | 1014.4 |
| 20260507071520 | 2 | 206 | 11.3 | 0.0 | 0.00 | 0.00 | 0.00 | 83 | 1014.4 |
| 20260507064600 | 2 | 247 | 14.5 | 0.0 | 0.00 | 0.00 | 0.00 | 84 | 1014.8 |
| 20260507063059 | 2 | 272 | 12.9 | 0.0 | 0.00 | 0.00 | 0.00 | 84 | 1015.0 |
| 20260507061507 | 2 | 236 | 12.9 | 0.0 | 0.00 | 0.00 | 0.00 | 84 | 1015.1 |
| 20260507060024 | 3 | 231 | 9.7 | 0.0 | 0.00 | 0.00 | 0.00 | 84 | 1015.5 |
| 20260507054514 | 3 | 230 | 9.7 | 0.0 | 0.00 | 0.00 | 0.00 | 85 | 1015.8 |
| 20260507053022 | 3 | 230 | 11.3 | 0.0 | 0.00 | 0.00 | 0.00 | 85 | 1015.9 |
| 20260507051536 | 3 | 231 | 11.3 | 0.0 | 0.00 | 0.00 | 0.00 | 86 | 1016.0 |
| 20260507050059 | 3 | 237 | 9.7 | 0.0 | 0.00 | 0.00 | 0.00 | 86 | 1015.9 |
| 20260507044525 | 3 | 247 | 9.7 | 0.0 | 0.00 | 0.00 | 0.00 | 85 | 1016.0 |
| 20260507043030 | 4 | 202 | 9.7 | 0.0 | 0.00 | 0.00 | 0.00 | 86 | 1016.0 |
| 20260507041541 | 3 | 209 | 9.7 | 0.0 | 0.00 | 0.00 | 0.00 | 86 | 1016.4 |
| 20260507040049 | 4 | 250 | 9.7 | 0.0 | 0.00 | 0.00 | 0.00 | 86 | 1016.5 |
| 20260507034513 | 4 | 246 | 9.7 | 0.0 | 0.00 | 0.00 | 0.00 | 86 | 1016.4 |
| 20260507033021 | 4 | 262 | 8.0 | 0.0 | 0.00 | 0.00 | 0.00 | 87 | 1016.4 |
| 20260507031533 | 4 | 231 | 6.4 | 0.0 | 0.00 | 0.00 | 0.00 | 87 | 1016.4 |
| 20260507030018 | 4 | 251 | 6.4 | 0.0 | 0.00 | 0.00 | 0.00 | 86 | 1016.3 |
| 20260507024521 | 5 | 226 | 6.4 | 0.0 | 0.00 | 0.00 | 0.00 | 86 | 1016.1 |
| 20260507023024 | 5 | 233 | 6.4 | 0.0 | 0.00 | 0.00 | 0.00 | 86 | 1016.0 |
| 20260507021516 | 5 | 216 | 6.4 | 0.0 | 0.00 | 0.00 | 0.00 | 86 | 1015.9 |
| 20260507020022 | 5 | 224 | 3.2 | 0.0 | 0.00 | 0.00 | 0.00 | 85 | 1016.3 |
| 20260507014529 | 5 | 206 | 3.2 | 0.0 | 0.00 | 0.00 | 0.00 | 85 | 1016.0 |
| 20260507013011 | 6 | 224 | 3.2 | 0.0 | 0.00 | 0.00 | 0.00 | 85 | 1016.0 |
| 20260507011530 | 6 | 260 | 3.2 | 0.0 | 0.00 | 0.00 | 0.00 | 86 | 1016.1 |
| 20260507010039 | 5 | 230 | 4.8 | 0.0 | 0.00 | 0.00 | 0.00 | 85 | 1016.4 |
| 20260507004529 | 6 | 272 | 8.0 | 0.0 | 0.00 | 0.00 | 0.00 | 84 | 1016.3 |
| 20260507003035 | 6 | 209 | 8.0 | 0.0 | 0.00 | 0.00 | 0.00 | 85 | 1016.2 |
| 20260507001544 | 6 | 262 | 6.4 | 0.0 | 0.00 | 0.00 | 0.00 | 87 | 1016.3 |
| 20260507000038 | 5 | 250 | 4.8 | 0.0 | 0.00 | 0.00 | 0.00 | 89 | 1016.3 |
| 20260506234503 | 6 | 250 | 3.2 | 0.0 | 0.00 | 0.00 | 0.00 | 89 | 1016.6 |
| 20260506233031 | 6 | 254 | 6.4 | 0.0 | 0.00 | 0.00 | 0.00 | 89 | 1016.6 |
| 20260506231535 | 5 | 268 | 6.4 | 0.0 | 0.00 | 0.00 | 0.00 | 89 | 1016.5 |
| 20260506230043 | 5 | 282 | 4.8 | 0.0 | 0.00 | 0.00 | 0.00 | 89 | 1016.5 |
| 20260506224549 | 5 | 219 | 1.6 | 0.0 | 0.00 | 0.00 | 0.00 | 89 | 1016.6 |
| 20260506223100 | 5 | 296 | 6.4 | 0.0 | 0.00 | 0.00 | 0.00 | 89 | 1016.7 |
| 20260506221502 | 5 | 261 | 8.0 | 0.0 | 0.00 | 0.00 | 0.00 | 88 | 1016.4 |
| 20260506220017 | 5 | 255 | 6.4 | 0.0 | 0.00 | 0.00 | 0.00 | 88 | 1016.4 |
| 20260506214540 | 5 | 185 | 1.6 | 0.0 | 0.00 | 0.00 | 0.00 | 88 | 1016.5 |
| 20260506213100 | 6 | 176 | 1.6 | 0.0 | 0.00 | 0.00 | 0.00 | 88 | 1016.5 |
| 20260506213002 | 5 | 195 | 1.6 | 0.0 | 0.00 | 0.00 | 0.00 | 87 | 1017.1 |
| 20260506211506 | 5 | 185 | 1.6 | 0.0 | 0.00 | 0.00 | 0.00 | 87 | 1017.1 |
| 20260506210010 | 5 | 213 | 6.4 | 0.0 | 0.00 | 0.00 | 0.00 | 85 | 1017.0 |
| 20260506204517 | 5 | 188 | 8.0 | 0.0 | 0.00 | 0.00 | 0.00 | 83 | 1017.0 |
| 20260506203023 | 6 | 210 | 6.4 | 0.0 | 0.00 | 0.00 | 0.00 | 84 | 1016.7 |
| 20260506201533 | 6 | 226 | 4.8 | 0.0 | 0.00 | 0.00 | 0.00 | 86 | 1017.0 |
| 20260506200018 | 5 | 195 | 6.4 | 0.0 | 0.00 | 0.00 | 0.00 | 86 | 1017.0 |
| 20260506194527 | 5 | 185 | 9.7 | 0.0 | 0.00 | 0.00 | 0.00 | 86 | 1017.0 |
| 20260506193035 | 5 | 212 | 1.6 | 0.0 | 0.00 | 0.00 | 0.00 | 88 | 1016.9 |